[[{"header":{"parameterUnit":"m.s-1","parameterCategory":1,"la1":30.2991,"la2":30.254,"lo1":-89.0895,"lo2":-89.0444,"dy":0.0017,"dx":0.0017,"nx":28,"ny":28,"refTime":"2023-07-20T03:00:00:Z","depth":0,"parameterNumber":2,"parameterNumberName":"U-component_of_WINDS"},"data":[0,0,0,0,0,0,0,0,0,0,0,0,0,0,0,0,0,0,0,0,0,0,0,0,0,0,0,0,0,0,0,0,0,0,0,0,0,0,0,0,0,0,0,0,0,0,0,0,0,0,0,0,0,0,0,0,0,0,3.7343,3.7344,0,3.745,3.7451,3.7452,3.7399,3.7397,3.7394,3.7391,3.7503,3.7508,3.7514,0,0,0,0,0,0,0,0,0,0,0,0,0,3.7094,3.7099,3.7343,3.7344,3.7346,3.7449,3.7451,3.7452,3.74,3.7396,3.7393,3.739,3.7501,3.7508,3.7514,0,0,0,0,0,0,0,0,0,0,0,0,0,3.7202,3.7101,3.7343,3.7332,3.7332,3.7449,3.7451,3.7453,3.7401,3.7396,3.7392,3.7388,3.7499,3.7507,3.7515,3.765,0,0,3.7541,3.7544,0,0,0,0,0,0,0,0,3.7196,3.7211,3.7332,3.7333,3.7333,3.7407,3.7404,3.7519,3.7402,3.7375,3.7391,3.7386,3.7475,3.7485,3.7514,3.7655,3.766,3.7541,3.7547,3.755,3.7552,0,0,0,0,0,0,0,3.7188,3.7206,3.7385,3.7334,3.7335,3.7322,3.7332,3.7426,3.7447,3.7377,3.7373,3.7386,3.7474,3.7506,3.7516,3.7662,3.7541,3.7549,3.7554,3.7557,3.7916,3.792,0,0,0,0,0,0,3.7181,3.72,3.7382,3.7388,3.7253,3.733,3.7342,3.7387,3.7445,3.745,3.739,3.7383,3.7494,3.7506,3.752,3.7679,3.755,3.7558,3.7563,3.7912,3.7917,3.7922,0,0,0,0,0,0,3.7176,3.7198,3.7377,3.7293,3.7315,3.7338,3.739,3.7392,3.7423,3.7455,3.7459,3.7418,3.7491,3.7508,3.7617,3.7682,3.7562,3.7569,3.7906,3.7913,3.7919,3.8,0,0,0,0,0,0,3.7169,3.7196,3.7248,3.7295,3.732,3.7473,3.7394,3.7397,3.7438,3.743,3.7483,3.7488,3.7489,3.7605,3.7625,3.7691,3.7576,3.79,3.7909,3.7917,3.7991,3.8008,3.8023,0,0,0,0,0,3.7161,3.7267,3.7251,3.7273,3.7385,3.7477,3.7491,3.7489,3.7443,3.7495,3.7515,3.7486,3.7672,3.7617,3.7639,3.7709,3.7896,3.7907,3.7917,3.7984,3.8005,3.8023,0,0,0,0,0,0,3.7229,3.7273,3.7255,3.7381,3.7425,3.7468,3.7533,3.7512,3.7571,3.7562,3.7558,3.7571,3.7683,3.7707,3.7645,3.7841,3.7777,3.7792,3.7821,3.7841,3.7856,3.7847,3.7583,0,0,0,0,0,3.7258,3.7329,3.7364,3.7471,3.7495,3.751,3.755,3.7545,3.7591,3.761,3.7638,3.7685,3.7753,3.7799,3.7864,3.7995,3.8005,3.8054,3.807,3.8083,3.8095,3.8164,3.8185,3.7955,3.7955,3.7955,0,0,3.732,3.7353,3.7398,3.7486,3.752,3.7593,3.7526,3.7607,3.7661,3.7623,3.7726,3.7749,3.7801,3.792,3.7975,3.7944,3.8161,3.8096,3.8106,3.8111,3.8176,3.8198,3.8217,3.7962,3.7961,3.796,0,0,3.7469,3.7502,3.7593,3.7628,3.768,3.7689,3.7711,3.7757,3.777,3.7874,3.7845,3.791,3.8029,3.8066,3.81,3.8262,3.8237,3.8284,3.8366,3.8432,3.845,3.8466,3.8522,3.8542,3.8296,3.8297,3.8297,0,3.7539,3.7648,3.7643,3.7726,3.7764,3.7731,3.7823,3.7858,3.7929,3.7956,3.792,3.8067,3.81,3.8226,3.8265,3.8295,3.8319,3.8277,3.8448,3.8464,3.8479,3.8531,3.8553,3.8302,3.8301,3.8301,3.83,0,3.773,3.7806,3.7874,3.7941,3.7987,3.8075,3.8083,3.813,3.8121,3.8134,3.8239,3.8277,3.8348,3.8378,3.8371,3.8504,3.8482,3.8448,3.8383,3.8506,3.8555,3.8575,3.8309,3.8307,3.8306,3.8304,0,0,3.7926,3.7988,3.8012,3.8041,3.8095,3.8154,3.8239,3.8307,3.8346,3.8397,3.8466,3.8567,3.8534,3.8574,3.857,3.8629,3.8751,3.8587,3.8588,3.8614,3.8897,3.8921,3.8944,3.8735,3.8739,3.8742,3.8891,0,3.8076,3.8224,3.8221,3.8358,3.8427,3.8396,3.847,3.8511,3.8525,3.8585,3.8601,3.8671,3.8625,3.8648,3.8705,3.8724,3.8807,3.8714,3.8799,3.8802,3.8785,3.897,3.8996,3.9135,3.8911,3.8914,3.8917,0,3.8272,3.8326,3.8469,3.851,3.8539,3.8606,3.8666,3.8725,3.877,3.8776,3.8819,3.8806,3.8891,3.8825,3.8942,3.8878,3.8913,3.8928,3.8933,3.894,3.8865,3.8979,3.918,3.92,3.8947,3.8945,3.8943,0,3.8397,3.8506,3.8605,3.8631,3.8682,3.8729,3.8753,3.8794,3.8834,3.8888,3.8914,3.8977,3.9012,3.9061,3.9065,3.9017,3.9182,3.9117,3.9188,3.9188,3.9223,3.922,3.943,3.925,3.9249,3.9249,3.9249,0,3.8564,3.8653,3.8661,3.8721,3.8819,3.8815,3.8912,3.8931,3.8968,3.9031,3.901,3.907,3.9072,3.9133,3.9137,3.9232,3.9249,3.9255,3.9254,3.9256,3.9254,3.9277,3.9266,3.9254,3.9253,3.9252,3.9251,0,3.872,3.8729,3.8834,3.8873,3.8885,3.8955,3.8989,3.9046,3.9058,3.9138,3.9157,3.9176,3.9247,3.9255,3.9339,3.9341,3.9454,3.9445,3.9439,3.9436,3.9506,3.9498,3.9735,3.9765,3.9568,3.957,3.9572,0,3.8825,3.8891,3.8937,3.8977,3.9003,3.9069,3.9109,3.9109,3.9151,3.9207,3.9257,3.9326,3.938,3.9495,3.9516,3.9579,3.9569,3.9648,3.9579,3.9577,3.9567,3.9562,3.9568,3.9661,3.9663,3.9665,3.9666,0,3.901,3.901,3.9069,3.9129,3.9177,3.9224,3.9269,3.9303,3.9308,3.9357,3.9428,3.9471,3.9554,3.9622,3.9684,3.9708,3.9688,3.9688,3.9707,3.9708,3.97,3.9702,3.9472,3.9682,3.9681,3.9679,3.9679,3.9678,3.9141,3.9198,3.9238,3.9303,3.9336,3.9378,3.9433,3.9451,3.951,3.9577,3.9573,3.9651,3.9693,3.9774,3.9803,3.9863,3.9837,3.9866,3.9873,3.9879,3.9885,3.9692,3.9875,3.9875,3.9874,3.9874,3.9874,0,3.9322,3.9346,3.9407,3.9468,3.9519,3.9495,3.9542,3.9587,3.9655,3.9696,3.9749,3.983,3.9895,3.9921,3.9984,4.0028,4.002,4.0044,4.004,4.0045,3.9906,3.9881,4.0049,4.0049,4.0049,4.0049,4.0049,4.0049,3.9423,3.9516,3.9521,3.9631,3.9654,3.9729,3.9758,3.9796,3.9828,3.9918,3.9972,3.9988,4.0022,4.0087,4.0145,4.0151,4.0174,4.0202,4.0204,4.0073,4.0055,4.0038,4.0015,4.0208,4.0208,4.0337,4.0339,4.034]},{"header":{"parameterUnit":"m.s-1","parameterCategory":1,"la1":30.2991,"la2":30.254,"lo1":-89.0895,"lo2":-89.0444,"dy":0.0017,"dx":0.0017,"nx":28,"ny":28,"refTime":"2023-07-20T03:00:00:Z","depth":0,"parameterNumber":3,"parameterNumberName":"V-component_of_WINDS"},"data":[0,0,0,0,0,0,0,0,0,0,0,0,0,0,0,0,0,0,0,0,0,0,0,0,0,0,0,0,0,0,0,0,0,0,0,0,0,0,0,0,0,0,0,0,0,0,0,0,0,0,0,0,0,0,0,0,0,0,1.2655,1.2655,0,1.2722,1.2722,1.2723,1.2719,1.2718,1.2718,1.2717,1.2783,1.2786,1.2789,0,0,0,0,0,0,0,0,0,0,0,0,0,1.2521,1.2523,1.2655,1.2656,1.2656,1.2722,1.2722,1.2723,1.272,1.2718,1.2717,1.2716,1.2783,1.2786,1.2789,0,0,0,0,0,0,0,0,0,0,0,0,0,1.2582,1.2524,1.2655,1.2662,1.2664,1.2721,1.2723,1.2724,1.272,1.2718,1.2717,1.2716,1.2782,1.2785,1.2789,1.2843,0,0,1.2802,1.2803,0,0,0,0,0,0,0,0,1.2579,1.2587,1.266,1.2662,1.2664,1.2711,1.27,1.2764,1.272,1.2699,1.2717,1.2715,1.276,1.2766,1.2782,1.2846,1.2849,1.2802,1.2804,1.2806,1.2807,0,0,0,0,0,0,0,1.2575,1.2584,1.2681,1.2661,1.2663,1.2662,1.2669,1.2712,1.2737,1.27,1.27,1.2708,1.2761,1.2778,1.2783,1.285,1.2802,1.2805,1.2808,1.2809,1.296,1.2961,0,0,0,0,0,0,1.2569,1.2581,1.2679,1.2683,1.2617,1.2665,1.2673,1.2697,1.2736,1.2741,1.2709,1.2708,1.2772,1.2778,1.2786,1.285,1.2806,1.281,1.2812,1.2958,1.296,1.2962,0,0,0,0,0,0,1.2566,1.2578,1.2676,1.2632,1.2644,1.2669,1.2696,1.2699,1.2716,1.2743,1.2747,1.2722,1.2771,1.278,1.2828,1.2852,1.2812,1.2815,1.2956,1.2959,1.2961,1.298,0,0,0,0,0,0,1.2562,1.2577,1.2598,1.2633,1.2647,1.2719,1.2697,1.2702,1.2723,1.2722,1.2756,1.2761,1.277,1.2822,1.2832,1.2857,1.2818,1.2954,1.2958,1.296,1.2978,1.2983,1.2988,0,0,0,0,0,1.2557,1.2601,1.2599,1.2611,1.2674,1.2721,1.2729,1.274,1.2725,1.2746,1.2763,1.276,1.2848,1.2828,1.2839,1.2865,1.2953,1.2957,1.296,1.2975,1.2982,1.2987,0,0,0,0,0,0,1.2569,1.2606,1.2604,1.266,1.2687,1.272,1.2747,1.2746,1.2778,1.2775,1.2786,1.2794,1.2843,1.2859,1.2835,1.2918,1.2898,1.2904,1.2906,1.2913,1.2918,1.2913,1.2822,0,0,0,0,0,1.2578,1.2613,1.2643,1.2689,1.2703,1.2723,1.2743,1.2749,1.2777,1.2789,1.2809,1.2836,1.287,1.2892,1.2925,1.2979,1.2986,1.3003,1.3008,1.3012,1.3017,1.3046,1.3053,1.2974,1.2974,1.2974,0,0,1.2597,1.2621,1.2643,1.2692,1.2714,1.2749,1.2733,1.2771,1.2797,1.2794,1.2842,1.2857,1.2888,1.294,1.2963,1.2954,1.304,1.3016,1.3019,1.3022,1.305,1.3058,1.3064,1.2976,1.2976,1.2975,0,0,1.265,1.2672,1.2713,1.2734,1.2767,1.278,1.2789,1.2822,1.2832,1.288,1.2878,1.2909,1.2967,1.2988,1.3007,1.3066,1.3063,1.3076,1.3102,1.313,1.3136,1.3142,1.3162,1.3169,1.3081,1.3081,1.3081,0,1.2669,1.2723,1.2734,1.2772,1.2793,1.2792,1.2833,1.2853,1.2895,1.2909,1.2898,1.297,1.2991,1.3047,1.3061,1.3076,1.3087,1.3072,1.3135,1.314,1.3146,1.3165,1.3173,1.3082,1.3082,1.3082,1.3082,0,1.2745,1.2782,1.2811,1.2851,1.2875,1.2915,1.293,1.2953,1.2956,1.2969,1.3017,1.3041,1.3078,1.3092,1.3095,1.3148,1.3141,1.3132,1.3113,1.3154,1.3173,1.318,1.3084,1.3083,1.3083,1.3083,0,0,1.2808,1.2853,1.2863,1.2881,1.2916,1.2945,1.2983,1.3019,1.3038,1.3066,1.3098,1.3147,1.3138,1.3159,1.3165,1.3189,1.3233,1.3177,1.3178,1.3187,1.3291,1.3298,1.3306,1.3231,1.3232,1.3234,1.3289,0,1.2864,1.2934,1.2943,1.3004,1.3038,1.3036,1.3069,1.3094,1.3107,1.3136,1.315,1.3184,1.3171,1.3183,1.3207,1.3223,1.3254,1.3219,1.326,1.3261,1.3253,1.3316,1.3324,1.3375,1.3296,1.3297,1.3298,0,1.294,1.297,1.3034,1.3063,1.3078,1.3108,1.3141,1.317,1.3197,1.3204,1.3227,1.3229,1.3267,1.3245,1.3298,1.3273,1.329,1.33,1.3302,1.3307,1.3283,1.3322,1.3391,1.3399,1.331,1.3309,1.3308,0,1.2979,1.3036,1.3081,1.3096,1.3132,1.3152,1.3168,1.3194,1.3214,1.3243,1.3256,1.3289,1.3306,1.3331,1.3341,1.3324,1.3392,1.3372,1.3399,1.3398,1.3414,1.3413,1.3486,1.3424,1.3424,1.3424,1.3424,0,1.3041,1.308,1.3099,1.3127,1.317,1.318,1.3222,1.3237,1.3259,1.3289,1.3289,1.3317,1.3328,1.3358,1.3365,1.3407,1.3415,1.3421,1.3423,1.3422,1.3421,1.3433,1.343,1.3426,1.3426,1.3425,1.3425,0,1.3093,1.3107,1.3156,1.3185,1.3193,1.3224,1.3248,1.3275,1.3286,1.3324,1.3333,1.3352,1.3386,1.3398,1.344,1.3445,1.3493,1.3491,1.3484,1.3484,1.351,1.3508,1.3595,1.3606,1.3537,1.3537,1.3538,0,1.3132,1.3162,1.3194,1.3214,1.323,1.3263,1.3284,1.3294,1.3315,1.3347,1.337,1.3403,1.3431,1.3486,1.3502,1.3533,1.3533,1.3561,1.3537,1.3534,1.3533,1.3531,1.3533,1.3565,1.3566,1.3567,1.3567,0,1.3199,1.3204,1.3235,1.3267,1.3292,1.3319,1.3344,1.336,1.3373,1.3397,1.3432,1.3454,1.3496,1.3529,1.3561,1.3575,1.3573,1.3574,1.3582,1.3581,1.3575,1.3578,1.3496,1.3572,1.3572,1.3571,1.3571,1.3571,1.3245,1.3271,1.3298,1.3331,1.3351,1.3374,1.34,1.3415,1.3445,1.348,1.3484,1.3521,1.3545,1.3588,1.3604,1.3632,1.3624,1.3636,1.3639,1.3641,1.3643,1.357,1.3638,1.3638,1.3638,1.3638,1.3637,0,1.3312,1.3329,1.3359,1.3395,1.3421,1.3416,1.3443,1.3465,1.3498,1.3522,1.3549,1.3588,1.362,1.3638,1.367,1.3689,1.3689,1.3697,1.3696,1.3699,1.3649,1.3639,1.3697,1.3697,1.3697,1.3697,1.3696,1.3696,1.335,1.3394,1.3402,1.3455,1.3471,1.3508,1.3524,1.3544,1.3563,1.3607,1.3634,1.3645,1.3666,1.3699,1.3727,1.3732,1.3743,1.3752,1.3756,1.3709,1.3703,1.3697,1.3687,1.3755,1.3755,1.3803,1.3804,1.3804]}]]